Miscellaneous Local Product
Issued by NWS Hastings, NE

Home | Current Version | Previous Version | Graphics & Text | Print | Product List | Glossary On
Versions: 1 2 3 4 5 6 7 8 9 10 11 12 13 14 15 16 17 18 19 20 21 22 23 24 25 26 27 28 29 30 31 32 33 34 35 36 37 38 39 40 41 42 43 44 45 46 47 48 49 50
515
AXUS43 KGID 190802
MISGRI

GID CWA HOURLY WEATHER ROUNDUP
NATIONAL WEATHER SERVICE HASTINGS NE
300 AM CDT SAT MAY 19 2018

NOTE: "FAIR" INDICATES FEW OR NO CLOUDS BELOW 12,000 FEET WITH NO
SIGNIFICANT WEATHER AND/OR OBSTRUCTIONS TO VISIBILITY.

...SOUTH CENTRAL NEBRASKA...

CITY           SKY/WX    TMP DP  RH WIND       PRES   REMARKS
GRAND ISLAND   LGT RAIN  64  59  83 CALM      29.93R
KEARNEY        RAIN      61  59  93 SE9       29.94R FOG
HASTINGS       LGT RAIN  61  61 100 CALM      29.94S FOG
ORD            CLOUDY    60  59  96 N14G20    29.93R
YORK           CLOUDY    63  63 100 NE12      29.88S
AURORA         TSTM      64  60  89 W9        29.91R
LEXINGTON      LGT RAIN  61  60  96 E3        29.94F
HOLDREGE       LGT RAIN  59  59 100 E5        29.92F
HEBRON         CLOUDY    63  60  91 SW3       29.89F

...NEBRASKA PANHANDLE...

CITY           SKY/WX    TMP DP  RH WIND       PRES   REMARKS
CHADRON        LGT RAIN  48  47  96 N17G23    30.10R
ALLIANCE       LGT RAIN  52  52 100 NE25      29.99S FOG
SCOTTSBLUFF    HVY RAIN  52  32  46 NW17G24   30.04S
SIDNEY         HVY RAIN  52  51  97 E18G28    29.94F FOG

...WESTERN AND NORTH CENTRAL NEBRASKA...

CITY           SKY/WX    TMP DP  RH WIND       PRES   REMARKS
VALENTINE      FOG       50  49  96 N20G26    30.04S VSB 1/2
AINSWORTH      CLOUDY    52  51  98 NE15      30.03R
ONEILL         RAIN      53  51  93 N16       30.01R
BROKEN BOW     LGT RAIN  62  59  90 N13       29.93F
IMPERIAL       CLOUDY    55  54  96 NE7       29.87F
NORTH PLATTE   LGT RAIN  60  59  96 SE8       29.94S FOG
MCCOOK         LGT RAIN  57  56  96 SE5       29.93S

...EASTERN NEBRASKA...

CITY           SKY/WX    TMP DP  RH WIND       PRES   REMARKS
NORFOLK        LGT RAIN  61  57  87 N13G24    29.92S
SO SIOUX CITY  CLOUDY    64  56  75 NW9       29.90R
TEKAMAH        MOCLDY    67  58  72 NW10      29.86F
COLUMBUS       CLOUDY    64  59  83 N10       29.90S
ALBION         DRIZZLE   62  58  89 N15G21    29.92F
OMAHA EPPLEY   CLOUDY    66  58  75 N6        29.84F
OFFUTT AFB     CLOUDY    66  58  76 CALM      29.83S
MILLARD        CLOUDY    70  59  69 NW5       29.85S
LINCOLN        CLOUDY    65  57  75 N3        29.86R
NEBRASKA CITY  CLOUDY    64  62  94 SW6       29.87R
BEATRICE       CLOUDY    67  61  82 S7G16     29.87R
FALLS CITY     CLOUDY    71  61  70 S6        29.86R

...NORTHERN KANSAS...

CITY           SKY/WX    TMP DP  RH WIND       PRES   REMARKS
GOODLAND       CLOUDY    55  51  86 NE7       29.87R
HILL CITY      LGT RAIN  59  58  96 N3        29.90F
NORTON         DRIZZLE   59  57  94 W5        29.89F
PHILLIPSBURG   DRIZZLE   61  61 100 N6        29.88F
SMITH CENTER   DRIZZLE   59  57  94 E6        29.90F
HAYS           LGT RAIN  60  58  92 SE5       29.93R
RUSSELL        CLOUDY    60  60 100 NE6       29.86F
CONCORDIA      LGT RAIN  62  60  93 W9        29.89F
SALINA         LGT RAIN  64  63  96 NW10      29.90R
TOPEKA         LGT RAIN  69  66  90 NW5       29.86R



USA.gov is the U.S. government's official web portal to all federal, state and local government web resources and services.